Year,Month,Day,Hour,Minute,Value (Times are PST for temperature in C)
2016,08,20,00,00,18.70
2016,08,20,00,01,18.70
2016,08,20,00,02,18.70
2016,08,20,00,03,18.60
2016,08,20,00,04,18.60
2016,08,20,00,05,18.60
2016,08,20,00,06,18.50
2016,08,20,00,07,18.50
2016,08,20,00,08,18.40
2016,08,20,00,09,18.30
2016,08,20,00,10,18.30
2016,08,20,00,11,18.30
2016,08,20,00,12,18.20
2016,08,20,00,13,18.20
2016,08,20,00,14,18.10
2016,08,20,00,15,18.00
2016,08,20,00,16,18.00
2016,08,20,00,17,17.90
2016,08,20,00,18,17.90
2016,08,20,00,19,17.80
2016,08,20,00,20,17.80
2016,08,20,00,21,17.80
2016,08,20,00,22,17.70
2016,08,20,00,23,17.70
2016,08,20,00,24,17.70
2016,08,20,00,25,17.70
2016,08,20,00,26,17.60
2016,08,20,00,27,17.60
2016,08,20,00,28,17.60
2016,08,20,00,29,17.50
2016,08,20,00,30,17.50
2016,08,20,00,31,17.50
2016,08,20,00,32,17.40
2016,08,20,00,33,17.40
2016,08,20,00,34,17.40
2016,08,20,00,35,17.40
2016,08,20,00,36,17.40
2016,08,20,00,37,17.40
2016,08,20,00,38,17.40
2016,08,20,00,39,17.40
2016,08,20,00,40,17.40
2016,08,20,00,41,17.40
2016,08,20,00,42,17.50
2016,08,20,00,43,17.50
2016,08,20,00,44,17.60
2016,08,20,00,45,17.60
2016,08,20,00,46,17.70
2016,08,20,00,47,17.70
2016,08,20,00,48,17.70
2016,08,20,00,49,17.80
2016,08,20,00,50,17.80
2016,08,20,00,51,17.80
2016,08,20,00,52,17.80
2016,08,20,00,53,17.80
2016,08,20,00,54,17.80
2016,08,20,00,55,17.70
2016,08,20,00,56,17.60
2016,08,20,00,57,17.50
2016,08,20,00,58,17.50
2016,08,20,00,59,17.40
2016,08,20,01,00,17.30
2016,08,20,01,01,17.30
2016,08,20,01,02,17.20
2016,08,20,01,03,17.20
2016,08,20,01,04,17.10
2016,08,20,01,05,17.00
2016,08,20,01,06,17.00
2016,08,20,01,07,16.90
2016,08,20,01,08,16.80
2016,08,20,01,09,16.80
2016,08,20,01,10,16.80
2016,08,20,01,11,16.80
2016,08,20,01,12,16.80
2016,08,20,01,13,16.80
2016,08,20,01,14,16.80
2016,08,20,01,15,16.80
2016,08,20,01,16,16.70
2016,08,20,01,17,16.70
2016,08,20,01,18,16.70
2016,08,20,01,19,16.70
2016,08,20,01,20,16.70
2016,08,20,01,21,16.70
2016,08,20,01,22,16.70
2016,08,20,01,23,16.80
2016,08,20,01,24,16.80
2016,08,20,01,25,16.80
2016,08,20,01,26,16.80
2016,08,20,01,27,16.80
2016,08,20,01,28,16.80
2016,08,20,01,29,16.80
2016,08,20,01,30,16.80
2016,08,20,01,31,16.80
2016,08,20,01,32,16.80
2016,08,20,01,33,16.70
2016,08,20,01,34,16.70
2016,08,20,01,35,16.70
2016,08,20,01,36,16.70
2016,08,20,01,37,16.70
2016,08,20,01,38,16.70
2016,08,20,01,39,16.70
2016,08,20,01,40,16.70
2016,08,20,01,41,16.70
2016,08,20,01,42,16.70
2016,08,20,01,43,16.70
2016,08,20,01,44,16.70
2016,08,20,01,45,16.70
2016,08,20,01,46,16.70
2016,08,20,01,47,16.70
2016,08,20,01,48,16.70
2016,08,20,01,49,16.70
2016,08,20,01,50,16.70
2016,08,20,01,51,16.70
2016,08,20,01,52,16.80
2016,08,20,01,53,16.80
2016,08,20,01,54,16.80
2016,08,20,01,55,16.80
2016,08,20,01,56,16.80
2016,08,20,01,57,16.80
2016,08,20,01,58,16.80
2016,08,20,01,59,16.80
2016,08,20,02,00,16.80
2016,08,20,02,01,16.80
2016,08,20,02,02,16.80
2016,08,20,02,03,16.80
2016,08,20,02,04,16.80
2016,08,20,02,05,16.80
2016,08,20,02,06,16.80
2016,08,20,02,07,16.80
2016,08,20,02,08,16.80
2016,08,20,02,09,16.80
2016,08,20,02,10,16.80
2016,08,20,02,11,16.70
2016,08,20,02,12,16.70
2016,08,20,02,13,16.70
2016,08,20,02,14,16.60
2016,08,20,02,15,16.60
2016,08,20,02,16,16.60
2016,08,20,02,17,16.60
2016,08,20,02,18,16.60
2016,08,20,02,19,16.50
2016,08,20,02,20,16.50
2016,08,20,02,21,16.40
2016,08,20,02,22,16.40
2016,08,20,02,23,16.40
2016,08,20,02,24,16.40
2016,08,20,02,25,16.30
2016,08,20,02,26,16.30
2016,08,20,02,27,16.30
2016,08,20,02,28,16.20
2016,08,20,02,29,16.20
2016,08,20,02,30,16.10
2016,08,20,02,31,16.10
2016,08,20,02,32,16.00
2016,08,20,02,33,16.00
2016,08,20,02,34,15.90
2016,08,20,02,35,16.00
2016,08,20,02,36,16.00
2016,08,20,02,37,16.10
2016,08,20,02,38,16.10
2016,08,20,02,39,16.10
2016,08,20,02,40,16.00
2016,08,20,02,41,16.00
2016,08,20,02,42,15.90
2016,08,20,02,43,15.90
2016,08,20,02,44,15.90
2016,08,20,02,45,15.80
2016,08,20,02,46,15.80
2016,08,20,02,47,15.80
2016,08,20,02,48,15.80
2016,08,20,02,49,15.80
2016,08,20,02,50,15.70
2016,08,20,02,51,15.70
2016,08,20,02,52,15.70
2016,08,20,02,53,15.70
2016,08,20,02,54,15.70
2016,08,20,02,55,15.80
2016,08,20,02,56,15.80
2016,08,20,02,57,15.80
2016,08,20,02,58,15.80
2016,08,20,02,59,15.80
2016,08,20,03,00,15.80
2016,08,20,03,01,15.80
2016,08,20,03,02,15.80
2016,08,20,03,03,15.70
2016,08,20,03,04,15.70
2016,08,20,03,05,15.60
2016,08,20,03,06,15.60
2016,08,20,03,07,15.50
2016,08,20,03,08,15.50
2016,08,20,03,09,15.40
2016,08,20,03,10,15.40
2016,08,20,03,11,15.30
2016,08,20,03,12,15.30
2016,08,20,03,13,15.30
2016,08,20,03,14,15.30
2016,08,20,03,15,15.30
2016,08,20,03,16,15.30
2016,08,20,03,17,15.30
2016,08,20,03,18,15.30
2016,08,20,03,19,15.30
2016,08,20,03,20,15.30
2016,08,20,03,21,15.30
2016,08,20,03,22,15.20
2016,08,20,03,23,15.20
2016,08,20,03,24,15.20
2016,08,20,03,25,15.20
2016,08,20,03,26,15.20
2016,08,20,03,27,15.20
2016,08,20,03,28,15.20
2016,08,20,03,29,15.20
2016,08,20,03,30,15.20
2016,08,20,03,31,15.20
2016,08,20,03,32,15.20
2016,08,20,03,33,15.20
2016,08,20,03,34,15.20
2016,08,20,03,35,15.20
2016,08,20,03,36,15.10
2016,08,20,03,37,15.10
2016,08,20,03,38,15.00
2016,08,20,03,39,15.00
2016,08,20,03,40,15.00
2016,08,20,03,41,15.10
2016,08,20,03,42,15.10
2016,08,20,03,43,15.20
2016,08,20,03,44,15.20
2016,08,20,03,45,15.30
2016,08,20,03,46,15.30
2016,08,20,03,47,15.30
2016,08,20,03,48,15.30
2016,08,20,03,49,15.30
2016,08,20,03,50,15.40
2016,08,20,03,51,15.40
2016,08,20,03,52,15.40
2016,08,20,03,53,15.40
2016,08,20,03,54,15.40
2016,08,20,03,55,15.40
2016,08,20,03,56,15.40
2016,08,20,03,57,15.40
2016,08,20,03,58,15.40
2016,08,20,03,59,15.40
2016,08,20,04,00,15.40
2016,08,20,04,01,15.40
2016,08,20,04,02,15.40
2016,08,20,04,03,15.40
2016,08,20,04,04,15.40
2016,08,20,04,05,15.40
2016,08,20,04,06,15.40
2016,08,20,04,07,15.30
2016,08,20,04,08,15.30
2016,08,20,04,09,15.30
2016,08,20,04,10,15.30
2016,08,20,04,11,15.30
2016,08,20,04,12,15.30
2016,08,20,04,13,15.30
2016,08,20,04,14,15.30
2016,08,20,04,15,15.30
2016,08,20,04,16,15.30
2016,08,20,04,17,15.30
2016,08,20,04,18,15.40
2016,08,20,04,19,15.40
2016,08,20,04,20,15.40
2016,08,20,04,21,15.40
2016,08,20,04,22,15.40
2016,08,20,04,23,15.40
2016,08,20,04,24,15.40
2016,08,20,04,25,15.40
2016,08,20,04,26,15.50
2016,08,20,04,27,15.50
2016,08,20,04,28,15.50
2016,08,20,04,29,15.50
2016,08,20,04,30,15.50
2016,08,20,04,31,15.50
2016,08,20,04,32,15.40
2016,08,20,04,33,15.40
2016,08,20,04,34,15.40
2016,08,20,04,35,15.50
2016,08,20,04,36,15.50
2016,08,20,04,37,15.50
2016,08,20,04,38,15.50
2016,08,20,04,39,15.50
2016,08,20,04,40,15.50
2016,08,20,04,41,15.50
2016,08,20,04,42,15.40
2016,08,20,04,43,15.40
2016,08,20,04,44,15.40
2016,08,20,04,45,15.40
2016,08,20,04,46,15.30
2016,08,20,04,47,15.30
2016,08,20,04,48,15.20
2016,08,20,04,49,15.10
2016,08,20,04,50,15.00
2016,08,20,04,51,15.00
2016,08,20,04,52,14.90
2016,08,20,04,53,14.90
2016,08,20,04,54,14.80
2016,08,20,04,55,14.80
2016,08,20,04,56,14.80
2016,08,20,04,57,14.90
2016,08,20,04,58,14.90
2016,08,20,04,59,14.90
2016,08,20,05,00,14.90
2016,08,20,05,01,14.90
2016,08,20,05,02,14.80
2016,08,20,05,03,14.80
2016,08,20,05,04,14.80
2016,08,20,05,05,14.80
2016,08,20,05,06,14.80
2016,08,20,05,07,14.80
2016,08,20,05,08,14.80
2016,08,20,05,09,14.90
2016,08,20,05,10,14.90
2016,08,20,05,11,14.90
2016,08,20,05,12,14.90
2016,08,20,05,13,14.90
2016,08,20,05,14,14.90
2016,08,20,05,15,14.90
2016,08,20,05,16,14.90
2016,08,20,05,17,14.90
2016,08,20,05,18,14.80
2016,08,20,05,19,14.80
2016,08,20,05,20,14.80
2016,08,20,05,21,14.80
2016,08,20,05,22,14.80
2016,08,20,05,23,14.70
2016,08,20,05,24,14.70
2016,08,20,05,25,14.70
2016,08,20,05,26,14.60
2016,08,20,05,27,14.60
2016,08,20,05,28,14.50
2016,08,20,05,29,14.40
2016,08,20,05,30,14.30
2016,08,20,05,31,14.30
2016,08,20,05,32,14.30
2016,08,20,05,33,14.30
2016,08,20,05,34,14.20
2016,08,20,05,35,14.20
2016,08,20,05,36,14.20
2016,08,20,05,37,14.20
2016,08,20,05,38,14.20
2016,08,20,05,39,14.20
2016,08,20,05,40,14.20
2016,08,20,05,41,14.20
2016,08,20,05,42,14.20
2016,08,20,05,43,14.20
2016,08,20,05,44,14.30
2016,08,20,05,45,14.30
2016,08,20,05,46,14.30
2016,08,20,05,47,14.30
2016,08,20,05,48,14.30
2016,08,20,05,49,14.30
2016,08,20,05,50,14.30
2016,08,20,05,51,14.30
2016,08,20,05,52,14.30
2016,08,20,05,53,14.30
2016,08,20,05,54,14.30
2016,08,20,05,55,14.30
2016,08,20,05,56,14.30
2016,08,20,05,57,14.30
2016,08,20,05,58,14.30
2016,08,20,05,59,14.30
2016,08,20,06,00,14.30
2016,08,20,06,01,14.30
2016,08,20,06,02,14.30
2016,08,20,06,03,14.30
2016,08,20,06,04,14.30
2016,08,20,06,05,14.20
2016,08,20,06,06,14.20
2016,08,20,06,07,14.20
2016,08,20,06,08,14.20
2016,08,20,06,09,14.10
2016,08,20,06,10,14.10
2016,08,20,06,11,14.10
2016,08,20,06,12,14.00
2016,08,20,06,13,14.00
2016,08,20,06,14,13.90
2016,08,20,06,15,13.90
2016,08,20,06,16,13.90
2016,08,20,06,17,13.90
2016,08,20,06,18,13.90
2016,08,20,06,19,13.90
2016,08,20,06,20,13.90
2016,08,20,06,21,13.90
2016,08,20,06,22,14.00
2016,08,20,06,23,14.00
2016,08,20,06,24,14.00
2016,08,20,06,25,14.00
2016,08,20,06,26,14.00
2016,08,20,06,27,14.00
2016,08,20,06,28,14.00
2016,08,20,06,29,14.00
2016,08,20,06,30,13.90
2016,08,20,06,31,13.90
2016,08,20,06,32,13.80
2016,08,20,06,33,13.80
2016,08,20,06,34,13.80
2016,08,20,06,35,13.80
2016,08,20,06,36,13.80
2016,08,20,06,37,13.80
2016,08,20,06,38,13.80
2016,08,20,06,39,13.80
2016,08,20,06,40,13.80
2016,08,20,06,41,13.70
2016,08,20,06,42,13.70
2016,08,20,06,43,13.70
2016,08,20,06,44,13.70
2016,08,20,06,45,13.70
2016,08,20,06,46,13.70
2016,08,20,06,47,13.70
2016,08,20,06,48,13.70
2016,08,20,06,49,13.70
2016,08,20,06,50,13.70
2016,08,20,06,51,13.70
2016,08,20,06,52,13.80
2016,08,20,06,53,13.80
2016,08,20,06,54,13.90
2016,08,20,06,55,13.90
2016,08,20,06,56,14.00
2016,08,20,06,57,14.10
2016,08,20,06,58,14.20
2016,08,20,06,59,14.30
2016,08,20,07,00,14.30
2016,08,20,07,01,14.40
2016,08,20,07,02,14.50
2016,08,20,07,03,14.60
2016,08,20,07,04,14.60
2016,08,20,07,05,14.70
2016,08,20,07,06,14.70
2016,08,20,07,07,14.70
2016,08,20,07,08,14.70
2016,08,20,07,09,14.70
2016,08,20,07,10,14.60
2016,08,20,07,11,14.60
2016,08,20,07,12,14.60
2016,08,20,07,13,14.50
2016,08,20,07,14,14.50
2016,08,20,07,15,14.40
2016,08,20,07,16,14.40
2016,08,20,07,17,14.40
2016,08,20,07,18,14.40
2016,08,20,07,19,14.40
2016,08,20,07,20,14.50
2016,08,20,07,21,14.50
2016,08,20,07,22,14.60
2016,08,20,07,23,14.60
2016,08,20,07,24,14.70
2016,08,20,07,25,14.80
2016,08,20,07,26,14.80
2016,08,20,07,27,14.90
2016,08,20,07,28,14.90
2016,08,20,07,29,15.00
2016,08,20,07,30,15.10
2016,08,20,07,31,15.20
2016,08,20,07,32,15.20
2016,08,20,07,33,15.30
2016,08,20,07,34,15.40
2016,08,20,07,35,15.50
2016,08,20,07,36,15.60
2016,08,20,07,37,15.70
2016,08,20,07,38,15.80
2016,08,20,07,39,15.90
2016,08,20,07,40,16.00
2016,08,20,07,41,16.10
2016,08,20,07,42,16.20
2016,08,20,07,43,16.30
2016,08,20,07,44,16.40
2016,08,20,07,45,16.40
2016,08,20,07,46,16.50
2016,08,20,07,47,16.60
2016,08,20,07,48,16.70
2016,08,20,07,49,16.70
2016,08,20,07,50,16.80
2016,08,20,07,51,16.80
2016,08,20,07,52,16.90
2016,08,20,07,53,17.00
2016,08,20,07,54,17.00
2016,08,20,07,55,17.10
2016,08,20,07,56,17.20
2016,08,20,07,57,17.30
2016,08,20,07,58,17.40
2016,08,20,07,59,17.40
2016,08,20,08,00,17.50
2016,08,20,08,01,17.60
2016,08,20,08,02,17.70
2016,08,20,08,03,17.70
2016,08,20,08,04,17.80
2016,08,20,08,05,17.90
2016,08,20,08,06,18.00
2016,08,20,08,07,18.10
2016,08,20,08,08,18.20
2016,08,20,08,09,18.30
2016,08,20,08,10,18.40
2016,08,20,08,11,18.50
2016,08,20,08,12,18.60
2016,08,20,08,13,18.70
2016,08,20,08,14,18.80
2016,08,20,08,15,19.00
2016,08,20,08,16,19.10
2016,08,20,08,17,19.20
2016,08,20,08,18,19.40
2016,08,20,08,19,19.50
2016,08,20,08,20,19.60
2016,08,20,08,21,19.70
2016,08,20,08,22,19.80
2016,08,20,08,23,19.90
2016,08,20,08,24,19.90
2016,08,20,08,25,20.00
2016,08,20,08,26,20.10
2016,08,20,08,27,20.10
2016,08,20,08,28,20.20
2016,08,20,08,29,20.20
2016,08,20,08,30,20.30
2016,08,20,08,31,20.30
2016,08,20,08,32,20.40
2016,08,20,08,33,20.50
2016,08,20,08,34,20.50
2016,08,20,08,35,20.60
2016,08,20,08,36,20.70
2016,08,20,08,37,20.70
2016,08,20,08,38,20.80
2016,08,20,08,39,20.80
2016,08,20,08,40,20.90
2016,08,20,08,41,20.90
2016,08,20,08,42,21.00
2016,08,20,08,43,21.10
2016,08,20,08,44,21.10
2016,08,20,08,45,21.20
2016,08,20,08,46,21.30
2016,08,20,08,47,21.40
2016,08,20,08,48,21.50
2016,08,20,08,49,21.50
2016,08,20,08,50,21.60
2016,08,20,08,51,21.60
2016,08,20,08,52,21.70
2016,08,20,08,53,21.80
2016,08,20,08,54,21.80
2016,08,20,08,55,21.90
2016,08,20,08,56,21.90
2016,08,20,08,57,22.00
2016,08,20,08,58,22.00
2016,08,20,08,59,22.10
2016,08,20,09,00,22.20
2016,08,20,09,01,22.30
2016,08,20,09,02,22.30
2016,08,20,09,03,22.40
2016,08,20,09,04,22.50
2016,08,20,09,05,22.60
2016,08,20,09,06,22.60
2016,08,20,09,07,22.60
2016,08,20,09,08,22.60
2016,08,20,09,09,22.70
2016,08,20,09,10,22.70
2016,08,20,09,11,22.70
2016,08,20,09,12,22.70
2016,08,20,09,13,22.70
2016,08,20,09,14,22.70
2016,08,20,09,15,22.80
2016,08,20,09,16,22.90
2016,08,20,09,17,22.90
2016,08,20,09,18,23.00
2016,08,20,09,19,23.10
2016,08,20,09,20,23.10
2016,08,20,09,21,23.20
2016,08,20,09,22,23.20
2016,08,20,09,23,23.30
2016,08,20,09,24,23.30
2016,08,20,09,25,23.40
2016,08,20,09,26,23.40
2016,08,20,09,27,23.50
2016,08,20,09,28,23.50
2016,08,20,09,29,23.60
2016,08,20,09,30,23.60
2016,08,20,09,31,23.60
2016,08,20,09,32,23.50
2016,08,20,09,33,23.50
2016,08,20,09,34,23.40
2016,08,20,09,35,23.30
2016,08,20,09,36,23.10
2016,08,20,09,37,22.90
2016,08,20,09,38,22.60
2016,08,20,09,39,22.50
2016,08,20,09,40,22.30
2016,08,20,09,41,22.20
2016,08,20,09,42,22.10
2016,08,20,09,43,22.00
2016,08,20,09,44,21.90
2016,08,20,09,45,21.90
2016,08,20,09,46,21.90
2016,08,20,09,47,21.90
2016,08,20,09,48,21.80
2016,08,20,09,49,21.80
2016,08,20,09,50,21.80
2016,08,20,09,51,21.80
2016,08,20,09,52,21.80
2016,08,20,09,53,21.80
2016,08,20,09,54,21.90
2016,08,20,09,55,21.90
2016,08,20,09,56,22.00
2016,08,20,09,57,22.00
2016,08,20,09,58,22.10
2016,08,20,09,59,22.10
2016,08,20,10,00,22.10
2016,08,20,10,01,22.10
2016,08,20,10,02,22.10
2016,08,20,10,03,22.20
2016,08,20,10,04,22.20
2016,08,20,10,05,22.30
2016,08,20,10,06,22.30
2016,08,20,10,07,22.40
2016,08,20,10,08,22.40
2016,08,20,10,09,22.40
2016,08,20,10,10,22.40
2016,08,20,10,11,22.40
2016,08,20,10,12,22.50
2016,08,20,10,13,22.60
2016,08,20,10,14,22.70
2016,08,20,10,15,22.70
2016,08,20,10,16,22.70
2016,08,20,10,17,22.80
2016,08,20,10,18,22.80
2016,08,20,10,19,22.90
2016,08,20,10,20,22.90
2016,08,20,10,21,23.00
2016,08,20,10,22,23.10
2016,08,20,10,23,23.10
2016,08,20,10,24,23.10
2016,08,20,10,25,23.10
2016,08,20,10,26,23.10
2016,08,20,10,27,23.10
2016,08,20,10,28,23.00
2016,08,20,10,29,23.00
2016,08,20,10,30,22.90
2016,08,20,10,31,22.90
2016,08,20,10,32,22.90
2016,08,20,10,33,22.90
2016,08,20,10,34,22.90
2016,08,20,10,35,22.90
2016,08,20,10,36,22.90
2016,08,20,10,37,22.90
2016,08,20,10,38,22.90
2016,08,20,10,39,23.00
2016,08,20,10,40,23.00
2016,08,20,10,41,23.00
2016,08,20,10,42,22.90
2016,08,20,10,43,22.90
2016,08,20,10,44,22.90
2016,08,20,10,45,23.00
2016,08,20,10,46,23.10
2016,08,20,10,47,23.20
2016,08,20,10,48,23.40
2016,08,20,10,49,23.50
2016,08,20,10,50,23.60
2016,08,20,10,51,23.70
2016,08,20,10,52,23.80
2016,08,20,10,53,23.80
2016,08,20,10,54,23.90
2016,08,20,10,55,23.90
2016,08,20,10,56,24.00
2016,08,20,10,57,24.00
2016,08,20,10,58,24.00
2016,08,20,10,59,24.00
2016,08,20,11,00,24.00
2016,08,20,11,01,24.00
2016,08,20,11,02,24.00
2016,08,20,11,03,24.00
2016,08,20,11,04,24.10
2016,08,20,11,05,24.10
2016,08,20,11,06,24.10
2016,08,20,11,07,24.10
2016,08,20,11,08,24.20
2016,08,20,11,09,24.30
2016,08,20,11,10,24.30
2016,08,20,11,11,24.40
2016,08,20,11,12,24.40
2016,08,20,11,13,24.50
2016,08,20,11,14,24.50
2016,08,20,11,15,24.60
2016,08,20,11,16,24.60
2016,08,20,11,17,24.70
2016,08,20,11,18,24.70
2016,08,20,11,19,24.70
2016,08,20,11,20,24.70
2016,08,20,11,21,24.60
2016,08,20,11,22,24.50
2016,08,20,11,23,24.30
2016,08,20,11,24,24.10
2016,08,20,11,25,23.90
2016,08,20,11,26,23.70
2016,08,20,11,27,23.50
2016,08,20,11,28,23.50
2016,08,20,11,29,23.50
2016,08,20,11,30,23.50
2016,08,20,11,31,23.60
2016,08,20,11,32,23.60
2016,08,20,11,33,23.60
2016,08,20,11,34,23.50
2016,08,20,11,35,23.50
2016,08,20,11,36,23.40
2016,08,20,11,37,23.40
2016,08,20,11,38,23.30
2016,08,20,11,39,23.30
2016,08,20,11,40,23.20
2016,08,20,11,41,23.20
2016,08,20,11,42,23.20
2016,08,20,11,43,23.20
2016,08,20,11,44,23.20
2016,08,20,11,45,23.20
2016,08,20,11,46,23.30
2016,08,20,11,47,23.40
2016,08,20,11,48,23.60
2016,08,20,11,49,23.70
2016,08,20,11,50,23.60
2016,08,20,11,51,23.60
2016,08,20,11,52,23.60
2016,08,20,11,53,23.50
2016,08,20,11,54,23.60
2016,08,20,11,55,23.60
2016,08,20,11,56,23.70
2016,08,20,11,57,23.70
2016,08,20,11,58,23.70
2016,08,20,11,59,23.60
2016,08,20,12,00,23.60
2016,08,20,12,01,23.70
2016,08,20,12,02,23.80
2016,08,20,12,03,23.80
2016,08,20,12,04,23.90
2016,08,20,12,05,24.00
2016,08,20,12,06,24.10
2016,08,20,12,07,24.30
2016,08,20,12,08,24.40
2016,08,20,12,09,24.50
2016,08,20,12,10,24.60
2016,08,20,12,11,24.70
2016,08,20,12,12,24.80
2016,08,20,12,13,24.80
2016,08,20,12,14,24.70
2016,08,20,12,15,24.70
2016,08,20,12,16,24.70
2016,08,20,12,17,24.80
2016,08,20,12,18,24.80
2016,08,20,12,19,24.80
2016,08,20,12,20,24.80
2016,08,20,12,21,24.80
2016,08,20,12,22,24.90
2016,08,20,12,23,24.90
2016,08,20,12,24,25.00
2016,08,20,12,25,25.10
2016,08,20,12,26,25.10
2016,08,20,12,27,25.20
2016,08,20,12,28,25.20
2016,08,20,12,29,25.30
2016,08,20,12,30,25.40
2016,08,20,12,31,25.50
2016,08,20,12,32,25.50
2016,08,20,12,33,25.60
2016,08,20,12,34,25.60
2016,08,20,12,35,25.60
2016,08,20,12,36,25.60
2016,08,20,12,37,25.60
2016,08,20,12,38,25.60
2016,08,20,12,39,25.70
2016,08,20,12,40,25.80
2016,08,20,12,41,25.80
2016,08,20,12,42,25.90
2016,08,20,12,43,26.00
2016,08,20,12,44,26.10
2016,08,20,12,45,26.00
2016,08,20,12,46,25.90
2016,08,20,12,47,25.70
2016,08,20,12,48,25.60
2016,08,20,12,49,25.40
2016,08,20,12,50,25.20
2016,08,20,12,51,25.10
2016,08,20,12,52,25.10
2016,08,20,12,53,25.00
2016,08,20,12,54,25.00
2016,08,20,12,55,25.00
2016,08,20,12,56,25.00
2016,08,20,12,57,25.00
2016,08,20,12,58,25.10
2016,08,20,12,59,25.10
2016,08,20,13,00,25.10
2016,08,20,13,01,25.10
2016,08,20,13,02,25.10
2016,08,20,13,03,25.10
2016,08,20,13,04,25.10
2016,08,20,13,05,25.20
2016,08,20,13,06,25.30
2016,08,20,13,07,25.30
2016,08,20,13,08,25.30
2016,08,20,13,09,25.30
2016,08,20,13,10,25.30
2016,08,20,13,11,25.30
2016,08,20,13,12,25.30
2016,08,20,13,13,25.20
2016,08,20,13,14,25.20
2016,08,20,13,15,25.20
2016,08,20,13,16,25.20
2016,08,20,13,17,25.10
2016,08,20,13,18,25.10
2016,08,20,13,19,25.00
2016,08,20,13,20,24.90
2016,08,20,13,21,24.90
2016,08,20,13,22,24.90
2016,08,20,13,23,24.80
2016,08,20,13,24,24.80
2016,08,20,13,25,24.90
2016,08,20,13,26,25.00
2016,08,20,13,27,25.10
2016,08,20,13,28,25.10
2016,08,20,13,29,25.20
2016,08,20,13,30,25.20
2016,08,20,13,31,25.20
2016,08,20,13,32,25.30
2016,08,20,13,33,25.30
2016,08,20,13,34,25.30
2016,08,20,13,35,25.40
2016,08,20,13,36,25.50
2016,08,20,13,37,25.60
2016,08,20,13,38,25.70
2016,08,20,13,39,25.70
2016,08,20,13,40,25.80
2016,08,20,13,41,25.90
2016,08,20,13,42,25.90
2016,08,20,13,43,26.00
2016,08,20,13,44,26.10
2016,08,20,13,45,26.10
2016,08,20,13,46,26.20
2016,08,20,13,47,26.20
2016,08,20,13,48,26.10
2016,08,20,13,49,26.00
2016,08,20,13,50,25.90
2016,08,20,13,51,25.90
2016,08,20,13,52,25.90
2016,08,20,13,53,25.90
2016,08,20,13,54,25.90
2016,08,20,13,55,26.00
2016,08,20,13,56,26.10
2016,08,20,13,57,26.10
2016,08,20,13,58,26.00
2016,08,20,13,59,25.90
2016,08,20,14,00,25.80
2016,08,20,14,01,25.80
2016,08,20,14,02,25.70
2016,08,20,14,03,25.60
2016,08,20,14,04,25.60
2016,08,20,14,05,25.60
2016,08,20,14,06,25.50
2016,08,20,14,07,25.60
2016,08,20,14,08,25.60
2016,08,20,14,09,25.70
2016,08,20,14,10,25.70
2016,08,20,14,11,25.70
2016,08,20,14,12,25.70
2016,08,20,14,13,25.70
2016,08,20,14,14,25.70
2016,08,20,14,15,25.70
2016,08,20,14,16,25.70
2016,08,20,14,17,25.70
2016,08,20,14,18,25.70
2016,08,20,14,19,25.70
2016,08,20,14,20,25.70
2016,08,20,14,21,25.70
2016,08,20,14,22,25.70
2016,08,20,14,23,25.70
2016,08,20,14,24,25.70
2016,08,20,14,25,25.70
2016,08,20,14,26,25.70
2016,08,20,14,27,25.80
2016,08,20,14,28,25.90
2016,08,20,14,29,25.90
2016,08,20,14,30,25.90
2016,08,20,14,31,25.90
2016,08,20,14,32,25.90
2016,08,20,14,33,25.90
2016,08,20,14,34,25.90
2016,08,20,14,35,25.90
2016,08,20,14,36,25.80
2016,08,20,14,37,25.80
2016,08,20,14,38,25.80
2016,08,20,14,39,25.80
2016,08,20,14,40,25.70
2016,08,20,14,41,25.70
2016,08,20,14,42,25.70
2016,08,20,14,43,25.60
2016,08,20,14,44,25.60
2016,08,20,14,45,25.60
2016,08,20,14,46,25.60
2016,08,20,14,47,25.50
2016,08,20,14,48,25.50
2016,08,20,14,49,25.50
2016,08,20,14,50,25.50
2016,08,20,14,51,25.40
2016,08,20,14,52,25.40
2016,08,20,14,53,25.40
2016,08,20,14,54,25.50
2016,08,20,14,55,25.50
2016,08,20,14,56,25.60
2016,08,20,14,57,25.60
2016,08,20,14,58,25.60
2016,08,20,14,59,25.60
2016,08,20,15,00,25.70
2016,08,20,15,01,25.70
2016,08,20,15,02,25.80
2016,08,20,15,03,25.80
2016,08,20,15,04,25.90
2016,08,20,15,05,26.00
2016,08,20,15,06,26.10
2016,08,20,15,07,26.10
2016,08,20,15,08,26.10
2016,08,20,15,09,26.00
2016,08,20,15,10,25.90
2016,08,20,15,11,25.80
2016,08,20,15,12,25.60
2016,08,20,15,13,25.50
2016,08,20,15,14,25.50
2016,08,20,15,15,25.50
2016,08,20,15,16,25.50
2016,08,20,15,17,25.50
2016,08,20,15,18,25.50
2016,08,20,15,19,25.50
2016,08,20,15,20,25.50
2016,08,20,15,21,25.50
2016,08,20,15,22,25.50
2016,08,20,15,23,25.60
2016,08,20,15,24,25.70
2016,08,20,15,25,25.70
2016,08,20,15,26,25.70
2016,08,20,15,27,25.70
2016,08,20,15,28,25.80
2016,08,20,15,29,25.80
2016,08,20,15,30,25.80
2016,08,20,15,31,25.80
2016,08,20,15,32,25.70
2016,08,20,15,33,25.60
2016,08,20,15,34,25.50
2016,08,20,15,35,25.40
2016,08,20,15,36,25.40
2016,08,20,15,37,25.40
2016,08,20,15,38,25.50
2016,08,20,15,39,25.60
2016,08,20,15,40,25.70
2016,08,20,15,41,25.80
2016,08,20,15,42,25.90
2016,08,20,15,43,25.90
2016,08,20,15,44,25.90
2016,08,20,15,45,26.00
2016,08,20,15,46,26.20
2016,08,20,15,47,26.30
2016,08,20,15,48,26.30
2016,08,20,15,49,26.30
2016,08,20,15,50,26.10
2016,08,20,15,51,26.00
2016,08,20,15,52,25.80
2016,08,20,15,53,25.60
2016,08,20,15,54,25.60
2016,08,20,15,55,25.60
2016,08,20,15,56,25.50
2016,08,20,15,57,25.50
2016,08,20,15,58,25.50
2016,08,20,15,59,25.60
2016,08,20,16,00,25.50
2016,08,20,16,01,25.50
2016,08,20,16,02,25.50
2016,08,20,16,03,25.40
2016,08,20,16,04,25.40
2016,08,20,16,05,25.40
2016,08,20,16,06,25.50
2016,08,20,16,07,25.60
2016,08,20,16,08,25.70
2016,08,20,16,09,25.70
2016,08,20,16,10,25.80
2016,08,20,16,11,25.90
2016,08,20,16,12,25.90
2016,08,20,16,13,25.80
2016,08,20,16,14,25.80
2016,08,20,16,15,25.80
2016,08,20,16,16,25.80
2016,08,20,16,17,25.80
2016,08,20,16,18,25.70
2016,08,20,16,19,25.60
2016,08,20,16,20,25.60
2016,08,20,16,21,25.60
2016,08,20,16,22,25.60
2016,08,20,16,23,25.70
2016,08,20,16,24,25.80
2016,08,20,16,25,25.90
2016,08,20,16,26,26.00
2016,08,20,16,27,26.10
2016,08,20,16,28,26.20
2016,08,20,16,29,26.20
2016,08,20,16,30,26.30
2016,08,20,16,31,26.30
2016,08,20,16,32,26.30
2016,08,20,16,33,26.40
2016,08,20,16,34,26.40
2016,08,20,16,35,26.50
2016,08,20,16,36,26.60
2016,08,20,16,37,26.60
2016,08,20,16,38,26.70
2016,08,20,16,39,26.80
2016,08,20,16,40,26.80
2016,08,20,16,41,26.90
2016,08,20,16,42,27.00
2016,08,20,16,43,27.00
2016,08,20,16,44,27.00
2016,08,20,16,45,27.00
2016,08,20,16,46,27.00
2016,08,20,16,47,27.00
2016,08,20,16,48,27.00
2016,08,20,16,49,27.10
2016,08,20,16,50,27.20
2016,08,20,16,51,27.30
2016,08,20,16,52,27.40
2016,08,20,16,53,27.40
2016,08,20,16,54,27.30
2016,08,20,16,55,27.20
2016,08,20,16,56,27.10
2016,08,20,16,57,27.00
2016,08,20,16,58,27.10
2016,08,20,16,59,27.10
2016,08,20,17,00,27.00
2016,08,20,17,01,26.90
2016,08,20,17,02,26.80
2016,08,20,17,03,26.80
2016,08,20,17,04,26.80
2016,08,20,17,05,26.80
2016,08,20,17,06,26.80
2016,08,20,17,07,26.80
2016,08,20,17,08,26.80
2016,08,20,17,09,26.80
2016,08,20,17,10,26.80
2016,08,20,17,11,26.90
2016,08,20,17,12,26.90
2016,08,20,17,13,27.00
2016,08,20,17,14,27.00
2016,08,20,17,15,27.00
2016,08,20,17,16,27.00
2016,08,20,17,17,27.00
2016,08,20,17,18,27.10
2016,08,20,17,19,27.20